FW9693 Weather Reports


time (UTC)temp
C
wind
direction
speed
KPH
gust
KPH
rain 1hr
cm
rain 24hr
cm
rain mn
cm
humidity
%
barometer
mb
20260506104610 21 287 22.5 29.0 0.00 0.00 0.00 28 1003.4
20260506103047 21 265 17.7 25.7 0.00 0.00 0.00 29 1003.5
20260506101547 21 261 19.3 24.1 0.00 0.00 0.00 30 1003.3
20260506100045 22 265 20.9 27.4 0.00 0.00 0.00 29 1003.2
20260506094540 22 273 24.1 30.6 0.00 0.00 0.00 28 1003.2
20260506093037 22 265 24.1 32.2 0.00 0.00 0.00 31 1003.1
20260506091538 22 259 22.5 27.4 0.00 0.00 0.00 33 1003.0
20260506090044 22 259 20.9 25.7 0.00 0.00 0.00 35 1002.9
20260506084537 21 242 19.3 24.1 0.00 0.00 0.00 36 1002.8
20260506083040 22 240 16.1 20.9 0.00 0.00 0.00 36 1002.8
20260506081532 22 241 16.1 19.3 0.00 0.00 0.00 36 1002.8
20260506073030 22 221 14.5 17.7 0.00 0.00 0.00 34 1002.7
20260506071532 22 230 12.9 20.9 0.00 0.00 0.00 35 1002.8
20260506061532 22 148 12.9 16.1 0.00 0.00 0.00 34 1002.4
20260506044531 23 155 14.5 17.7 0.00 0.00 0.00 35 1002.1
20260506043018 25 45 6.4 9.7 0.00 0.00 0.00 29 1002.0
20260506041519 25 294 4.8 8.0 0.00 0.00 0.00 28 1001.7
20260506040028 25 287 4.8 11.3 0.00 0.00 0.00 28 1001.5
20260506034517 25 309 11.3 16.1 0.00 0.00 0.00 29 1001.1
20260506033020 25 324 14.5 17.7 0.00 0.00 0.00 29 1000.8
20260506031518 24 321 12.9 19.3 0.00 0.00 0.00 30 1000.6
20260506030018 26 286 8.0 11.3 0.00 0.00 0.00 25 1000.3
20260506024526 26 294 4.8 6.4 0.00 0.00 0.00 25 1000.0
20260506023014 26 309 6.4 8.0 0.00 0.00 0.00 26 1000.1
20260506021521 26 265 4.8 6.4 0.00 0.00 0.00 26 1000.1
20260506020013 26 273 4.8 11.3 0.00 0.00 0.00 25 1000.0
20260506014521 26 296 8.0 11.3 0.00 0.00 0.00 26 999.9
20260506013012 26 303 6.4 8.0 0.00 0.00 0.00 26 999.9
20260506011520 26 277 6.4 11.3 0.00 0.00 0.00 26 1000.0
20260506010013 27 265 11.3 14.5 0.00 0.00 0.00 25 1000.0
20260506004509 27 279 12.9 24.1 0.00 0.00 0.00 25 1000.1
20260506003007 27 298 11.3 19.3 0.00 0.00 0.00 25 1000.2
20260506001630 27 275 20.9 27.4 0.00 0.00 0.00 24 1000.3
20260506000014 27 281 22.5 30.6 0.00 0.00 0.00 24 1000.3
20260505234515 26 292 22.5 30.6 0.00 0.00 0.00 25 1000.5
20260505233011 26 272 24.1 38.6 0.00 0.00 0.00 24 1000.7
20260505231504 26 288 22.5 33.8 0.00 0.00 0.00 24 1000.6
20260505230002 26 286 24.1 41.8 0.00 0.00 0.00 25 1000.8
20260505224501 26 287 30.6 38.6 0.00 0.00 0.00 24 1000.8
20260505223113 26 312 35.4 46.7 0.00 0.00 0.00 24 1000.8
20260505221603 26 294 38.6 53.1 0.00 0.00 0.00 24 1000.7
20260505220059 26 292 43.5 53.1 0.00 0.00 0.00 24 1000.9
20260505214602 26 271 20.9 33.8 0.00 0.00 0.00 25 1001.4
20260505213054 26 275 33.8 46.7 0.00 0.00 0.00 25 1001.6
20260505211624 26 272 33.8 43.5 0.00 0.00 0.00 25 1001.4
20260505210055 26 252 32.2 49.9 0.00 0.00 0.00 25 1001.7
20260505204556 26 286 30.6 45.1 0.00 0.00 0.00 26 1001.7
20260505203114 26 280 40.2 54.7 0.00 0.00 0.00 25 1001.8
20260505201551 26 259 40.2 57.9 0.00 0.00 0.00 25 1001.9
20260505200050 27 277 38.6 53.1 0.00 0.00 0.00 24 1001.8
20260505194550 27 286 38.6 57.9 0.00 0.00 0.00 24 1002.1
20260505193047 26 252 37.0 48.3 0.00 0.00 0.00 25 1001.9
20260505191554 26 262 33.8 51.5 0.00 0.00 0.00 26 1001.9
20260505190047 26 282 33.8 46.7 0.00 0.00 0.00 27 1002.1
20260505184550 26 254 37.0 46.7 0.00 0.00 0.00 26 1002.1
20260505183048 26 267 41.8 48.3 0.00 0.00 0.00 27 1002.4
20260505181552 26 257 24.1 33.8 0.00 0.00 0.00 27 1002.7
20260505180055 26 262 19.3 25.7 0.00 0.00 0.00 26 1002.7
20260505174546 26 270 12.9 22.5 0.00 0.00 0.00 26 1002.6
20260505173044 25 237 17.7 25.7 0.00 0.00 0.00 26 1002.8
20260505171534 25 273 14.5 22.5 0.00 0.00 0.00 26 1002.8
20260505170037 25 261 17.7 27.4 0.00 0.00 0.00 27 1002.9
20260505164535 25 255 20.9 25.7 0.00 0.00 0.00 27 1003.1
20260505163033 25 255 20.9 27.4 0.00 0.00 0.00 27 1002.9
20260505161531 25 281 17.7 29.0 0.00 0.00 0.00 27 1002.6
20260505153031 24 263 17.7 24.1 0.00 0.00 0.00 27 1002.5
20260505151538 23 311 6.4 12.9 0.00 0.00 0.00 32 1002.4
20260505124534 21 242 22.5 29.0 0.00 0.00 0.00 29 1000.7
20260505123033 21 225 24.1 29.0 0.00 0.00 0.00 30 1000.6
20260505121536 20 218 17.7 22.5 0.00 0.00 0.00 36 1000.5
20260505120030 20 221 9.7 12.9 0.00 0.00 0.00 33 1000.4
20260505114524 20 243 12.9 16.1 0.00 0.00 0.00 33 1000.2
20260505113036 20 265 14.5 19.3 0.00 0.00 0.00 34 1000.1
20260505111538 20 273 14.5 19.3 0.00 0.00 0.00 35 1000.0